Weather in Petuhovo

Russia / Kurgan Oblast     55°03′54″N   67°53′14″E
temp.,
°C
wind,
m/s
gust,
m/s
humid.,
%
clouds,
%
prec.,
mm/h
press.,
hPa
HPBL,
m
7 may, fri
fri723:00+9wnw38445 0.0 1014176
02:00+7wnw37510 0.0 1016134
05:00+6wnw37570 0.0 1018117
08:00+10nw58420 0.0 1020889
11:00+14wnw56300 0.0 10201237
14:00+17wnw45273 0.0 10201487
17:00+19wnw34250 0.0 10201479
20:00+15sw22360 0.0 102012
8 may, sat
sat823:00+12sw22415 0.0 102114
02:00+11sw22465 0.0 102110
05:00+10s22485 0.0 102110
08:00+15s233814 0.0 1021282
11:00+19sse3328100 0.0 10201225
14:00+20sse3326100 0.0 10182080
17:00+21ese222592 0.0 10172338
20:00+17e353792 0.0 101774
9 may, sun
sun923:00+15ene3539100 0.0 101663
02:00+14ene4840100 0.0 1016155
05:00+13ene4948100 0.0 1015193
08:00+16ene61243100 0.0 1015427
11:00+21e81131100 0.0 10141444
14:00+19sse101042100 0.0 10151057
17:00+17e51149100 0.8 10161533
20:00+18ene91446100 0.1 1015968
10 may, mon
mon1023:00+17ene81447100 0.1 1016860
02:00+14ene71455100 0.0 1016542
05:00+12ene61252100 0.0 1018454
08:00+14ene8114371 0.0 1020826
11:00+17ne8113377 0.0 10201724
14:00+19ne810286 0.0 10202773
17:00+19ne89289 0.0 10202699
20:00+15ene36425 0.0 1021117
11 may, tue
tue1123:00+12ese23525 0.0 102227
02:00+10sse11595 0.0 102210
05:00+9wsw116120 0.0 102210
08:00+14wsw22455 0.0 1022340
11:00+18nw343276 0.0 10222387
14:00+21wnw45275 0.0 10202632
17:00+22nnw452329 0.0 10202846
20:00+17ne3538100 0.0 102185